| time (UTC) | temp F | wind direction | speed MPH | gust MPH | rain 1hr in | rain 24hr in | rain mn in | humidity % | barometer mb |
| 20260506005530 | 44 | 80 | 3.0 | 6.0 | 0.00 | 0.00 | 0.00 | 63 | 1017.5 |
| 20260506005030 | 44 | 68 | 3.0 | 6.0 | 0.00 | 0.00 | 0.00 | 63 | 1017.6 |
| 20260506004536 | 44 | 160 | 2.0 | 6.0 | 0.00 | 0.00 | 0.00 | 63 | 1017.6 |
| 20260506004030 | 45 | 72 | 3.0 | 7.0 | 0.00 | 0.00 | 0.00 | 63 | 1017.6 |
| 20260506003530 | 45 | 78 | 3.0 | 7.0 | 0.00 | 0.00 | 0.00 | 62 | 1017.6 |
| 20260506003042 | 45 | 68 | 4.0 | 8.0 | 0.00 | 0.00 | 0.00 | 62 | 1017.7 |
| 20260506002530 | 45 | 78 | 3.0 | 9.0 | 0.00 | 0.00 | 0.00 | 62 | 1017.7 |
| 20260506002030 | 45 | 95 | 4.0 | 9.0 | 0.00 | 0.00 | 0.00 | 63 | 1017.7 |
| 20260506001545 | 45 | 74 | 6.0 | 9.0 | 0.00 | 0.00 | 0.00 | 62 | 1017.5 |
| 20260506001030 | 45 | 71 | 3.0 | 6.0 | 0.00 | 0.00 | 0.00 | 63 | 1017.6 |
| 20260506000530 | 45 | 59 | 3.0 | 6.0 | 0.00 | 0.00 | 0.00 | 63 | 1017.6 |
| 20260506000037 | 45 | 72 | 2.0 | 7.0 | 0.00 | 0.00 | 0.00 | 63 | 1017.6 |
| 20260505235531 | 45 | 81 | 4.0 | 7.0 | 0.00 | 0.00 | 0.00 | 63 | 1017.5 |
| 20260505235031 | 45 | 70 | 3.0 | 6.0 | 0.00 | 0.00 | 0.00 | 63 | 1017.5 |
| 20260505234537 | 45 | 75 | 3.0 | 7.0 | 0.00 | 0.00 | 0.00 | 63 | 1017.5 |
| 20260505234030 | 45 | 49 | 2.0 | 7.0 | 0.00 | 0.00 | 0.00 | 63 | 1017.5 |
| 20260505233531 | 45 | 69 | 3.0 | 6.0 | 0.00 | 0.00 | 0.00 | 63 | 1017.6 |
| 20260505233043 | 45 | 84 | 2.0 | 6.0 | 0.00 | 0.00 | 0.00 | 63 | 1017.5 |
| 20260505232530 | 45 | 59 | 3.0 | 8.0 | 0.00 | 0.00 | 0.00 | 63 | 1017.6 |
| 20260505232030 | 45 | 108 | 2.0 | 8.0 | 0.00 | 0.00 | 0.00 | 64 | 1017.7 |
| 20260505231543 | 45 | 83 | 4.0 | 8.0 | 0.00 | 0.00 | 0.00 | 63 | 1017.7 |
| 20260505231033 | 45 | 56 | 3.0 | 10.0 | 0.00 | 0.00 | 0.00 | 63 | 1017.7 |
| 20260505230530 | 45 | 68 | 4.0 | 10.0 | 0.00 | 0.00 | 0.00 | 63 | 1017.7 |
| 20260505230051 | 45 | 68 | 5.0 | 10.0 | 0.00 | 0.00 | 0.00 | 63 | 1017.8 |
| 20260505225530 | 45 | 117 | 4.0 | 9.0 | 0.00 | 0.00 | 0.00 | 63 | 1017.9 |
| 20260505225030 | 45 | 63 | 4.0 | 8.0 | 0.00 | 0.00 | 0.00 | 63 | 1017.9 |
| 20260505224536 | 45 | 70 | 3.0 | 8.0 | 0.00 | 0.00 | 0.00 | 63 | 1017.8 |
| 20260505224030 | 45 | 78 | 3.0 | 9.0 | 0.00 | 0.00 | 0.00 | 63 | 1017.9 |
| 20260505223530 | 45 | 69 | 4.0 | 9.0 | 0.00 | 0.00 | 0.00 | 64 | 1017.8 |
| 20260505223054 | 45 | 96 | 2.0 | 5.0 | 0.00 | 0.00 | 0.00 | 64 | 1017.9 |
| 20260505222534 | 46 | 65 | 2.0 | 5.0 | 0.00 | 0.00 | 0.00 | 64 | 1018.0 |
| 20260505222032 | 46 | 75 | 2.0 | 9.0 | 0.00 | 0.00 | 0.00 | 63 | 1017.9 |
| 20260505221543 | 46 | 58 | 2.0 | 9.0 | 0.00 | 0.00 | 0.00 | 63 | 1017.9 |
| 20260505221031 | 46 | 108 | 3.0 | 8.0 | 0.00 | 0.00 | 0.00 | 63 | 1017.7 |
| 20260505220530 | 46 | 60 | 3.0 | 7.0 | 0.00 | 0.00 | 0.00 | 63 | 1017.8 |
| 20260505220044 | 46 | 74 | 4.0 | 9.0 | 0.00 | 0.00 | 0.00 | 63 | 1017.9 |
| 20260505215530 | 46 | 63 | 4.0 | 9.0 | 0.00 | 0.00 | 0.00 | 63 | 1018.0 |
| 20260505215030 | 46 | 94 | 4.0 | 9.0 | 0.00 | 0.00 | 0.00 | 63 | 1018.1 |
| 20260505214540 | 46 | 65 | 3.0 | 7.0 | 0.00 | 0.00 | 0.00 | 62 | 1017.8 |
| 20260505214030 | 46 | 65 | 3.0 | 7.0 | 0.00 | 0.00 | 0.00 | 63 | 1017.9 |
| 20260505213530 | 46 | 92 | 3.0 | 8.0 | 0.00 | 0.00 | 0.00 | 63 | 1017.7 |
| 20260505213050 | 46 | 106 | 3.0 | 8.0 | 0.00 | 0.00 | 0.00 | 62 | 1017.8 |
| 20260505212533 | 46 | 78 | 3.0 | 8.0 | 0.00 | 0.00 | 0.00 | 62 | 1017.7 |
| 20260505212033 | 46 | 80 | 3.0 | 13.0 | 0.00 | 0.00 | 0.00 | 62 | 1017.7 |
| 20260505211535 | 46 | 75 | 4.0 | 13.0 | 0.00 | 0.00 | 0.00 | 62 | 1017.6 |
| 20260505211031 | 46 | 76 | 4.0 | 9.0 | 0.00 | 0.00 | 0.00 | 62 | 1017.6 |
| 20260505210536 | 46 | 60 | 3.0 | 11.0 | 0.00 | 0.00 | 0.00 | 61 | 1017.6 |
| 20260505210042 | 46 | 93 | 4.0 | 11.0 | 0.00 | 0.00 | 0.00 | 61 | 1017.6 |
| 20260505205531 | 46 | 84 | 5.0 | 11.0 | 0.00 | 0.00 | 0.00 | 61 | 1017.5 |
| 20260505205032 | 46 | 61 | 5.0 | 11.0 | 0.00 | 0.00 | 0.00 | 61 | 1017.5 |
| 20260505204546 | 46 | 72 | 5.0 | 11.0 | 0.00 | 0.00 | 0.00 | 61 | 1017.4 |
| 20260505204033 | 46 | 64 | 4.0 | 11.0 | 0.00 | 0.00 | 0.00 | 61 | 1017.4 |
| 20260505203531 | 46 | 119 | 6.0 | 10.0 | 0.00 | 0.00 | 0.00 | 61 | 1017.2 |
| 20260505203046 | 46 | 72 | 5.0 | 9.0 | 0.00 | 0.00 | 0.00 | 62 | 1017.3 |
| 20260505202531 | 46 | 65 | 5.0 | 11.0 | 0.00 | 0.00 | 0.00 | 62 | 1017.3 |
| 20260505202031 | 47 | 77 | 4.0 | 13.0 | 0.00 | 0.00 | 0.00 | 62 | 1017.2 |
| 20260505201546 | 47 | 85 | 6.0 | 13.0 | 0.00 | 0.00 | 0.00 | 62 | 1017.2 |
| 20260505201032 | 47 | 80 | 6.0 | 13.0 | 0.00 | 0.00 | 0.00 | 62 | 1017.2 |
| 20260505200532 | 47 | 65 | 8.0 | 13.0 | 0.00 | 0.00 | 0.00 | 63 | 1017.2 |
| 20260505200045 | 47 | 112 | 6.0 | 12.0 | 0.00 | 0.00 | 0.00 | 63 | 1017.1 |
| 20260505195531 | 47 | 75 | 5.0 | 11.0 | 0.00 | 0.00 | 0.00 | 63 | 1017.1 |
| 20260505195033 | 47 | 120 | 6.0 | 11.0 | 0.00 | 0.00 | 0.00 | 64 | 1017.0 |
| 20260505194550 | 47 | 67 | 4.0 | 13.0 | 0.00 | 0.00 | 0.00 | 64 | 1017.1 |
| 20260505194034 | 47 | 60 | 5.0 | 13.0 | 0.00 | 0.00 | 0.00 | 63 | 1017.0 |
| 20260505193533 | 47 | 63 | 8.0 | 13.0 | 0.00 | 0.00 | 0.00 | 63 | 1017.0 |
| 20260505193042 | 48 | 81 | 5.0 | 11.0 | 0.00 | 0.00 | 0.00 | 63 | 1016.9 |
| 20260505192534 | 48 | 85 | 5.0 | 11.0 | 0.00 | 0.00 | 0.00 | 63 | 1016.9 |
| 20260505192032 | 48 | 81 | 5.0 | 10.0 | 0.00 | 0.00 | 0.00 | 62 | 1016.9 |
| 20260505191541 | 48 | 73 | 6.0 | 13.0 | 0.00 | 0.00 | 0.00 | 62 | 1016.8 |
| 20260505191033 | 48 | 110 | 5.0 | 13.0 | 0.00 | 0.00 | 0.00 | 62 | 1016.7 |
| 20260505190535 | 48 | 72 | 5.0 | 8.0 | 0.00 | 0.00 | 0.00 | 62 | 1016.8 |
| 20260505190048 | 49 | 92 | 3.0 | 10.0 | 0.00 | 0.00 | 0.00 | 63 | 1016.7 |
| 20260505185533 | 49 | 60 | 3.0 | 10.0 | 0.00 | 0.00 | 0.00 | 63 | 1016.7 |
| 20260505185032 | 49 | 70 | 6.0 | 9.0 | 0.00 | 0.00 | 0.00 | 62 | 1016.7 |
| 20260505184550 | 49 | 94 | 5.0 | 9.0 | 0.00 | 0.00 | 0.00 | 62 | 1016.6 |
| 20260505184034 | 49 | 80 | 5.0 | 12.0 | 0.00 | 0.00 | 0.00 | 62 | 1016.5 |
| 20260505183532 | 49 | 56 | 7.0 | 12.0 | 0.00 | 0.00 | 0.00 | 61 | 1016.5 |
| 20260505183049 | 49 | 72 | 6.0 | 15.0 | 0.00 | 0.00 | 0.00 | 61 | 1016.6 |
| 20260505182531 | 50 | 70 | 8.0 | 15.0 | 0.00 | 0.00 | 0.00 | 61 | 1016.6 |
| 20260505182034 | 50 | 97 | 6.0 | 14.0 | 0.00 | 0.00 | 0.00 | 62 | 1016.5 |
| 20260505181541 | 50 | 81 | 8.0 | 16.0 | 0.00 | 0.00 | 0.00 | 61 | 1016.5 |
| 20260505181033 | 50 | 75 | 6.0 | 16.0 | 0.00 | 0.00 | 0.00 | 61 | 1016.4 |
| 20260505180533 | 50 | 60 | 7.0 | 16.0 | 0.00 | 0.00 | 0.00 | 61 | 1016.5 |
| 20260505180039 | 50 | 89 | 6.0 | 14.0 | 0.00 | 0.00 | 0.00 | 61 | 1016.4 |
| 20260505175532 | 50 | 96 | 6.0 | 14.0 | 0.00 | 0.00 | 0.00 | 62 | 1016.4 |
| 20260505175032 | 49 | 50 | 7.0 | 14.0 | 0.00 | 0.00 | 0.00 | 62 | 1016.3 |
| 20260505174537 | 50 | 92 | 7.0 | 14.0 | 0.00 | 0.00 | 0.00 | 62 | 1016.4 |
| 20260505174032 | 50 | 46 | 8.0 | 17.0 | 0.00 | 0.00 | 0.00 | 61 | 1016.4 |
| 20260505173534 | 50 | 131 | 6.0 | 17.0 | 0.00 | 0.00 | 0.00 | 62 | 1016.5 |
| 20260505173043 | 51 | 28 | 5.0 | 12.0 | 0.00 | 0.00 | 0.00 | 62 | 1016.3 |
| 20260505172531 | 51 | 68 | 6.0 | 11.0 | 0.00 | 0.00 | 0.00 | 62 | 1016.4 |
| 20260505172032 | 51 | 84 | 5.0 | 11.0 | 0.00 | 0.00 | 0.00 | 62 | 1016.4 |
| 20260505171543 | 51 | 74 | 6.0 | 17.0 | 0.00 | 0.00 | 0.00 | 62 | 1016.4 |
| 20260505171034 | 51 | 68 | 9.0 | 17.0 | 0.00 | 0.00 | 0.00 | 63 | 1016.3 |
| 20260505170532 | 51 | 85 | 7.0 | 15.0 | 0.00 | 0.00 | 0.00 | 63 | 1016.3 |
| 20260505170042 | 51 | 79 | 6.0 | 13.0 | 0.00 | 0.00 | 0.00 | 63 | 1016.3 |
| 20260505165532 | 51 | 70 | 6.0 | 13.0 | 0.00 | 0.00 | 0.00 | 62 | 1016.2 |
| 20260505165032 | 52 | 65 | 7.0 | 13.0 | 0.00 | 0.00 | 0.00 | 61 | 1016.2 |
| 20260505164556 | 52 | 88 | 6.0 | 13.0 | 0.00 | 0.00 | 0.00 | 60 | 1016.2 |
| 20260505164032 | 52 | 94 | 7.0 | 13.0 | 0.00 | 0.00 | 0.00 | 60 | 1016.1 |
| 20260505163532 | 52 | 90 | 8.0 | 13.0 | 0.00 | 0.00 | 0.00 | 60 | 1016.1 |
| 20260505163038 | 52 | 46 | 7.0 | 12.0 | 0.00 | 0.00 | 0.00 | 61 | 1016.0 |
| 20260505162531 | 51 | 123 | 5.0 | 12.0 | 0.00 | 0.00 | 0.00 | 63 | 1016.1 |
| 20260505162032 | 51 | 94 | 6.0 | 13.0 | 0.00 | 0.00 | 0.00 | 62 | 1016.1 |
| 20260505161537 | 51 | 64 | 6.0 | 13.0 | 0.00 | 0.00 | 0.00 | 62 | 1016.0 |
| 20260505161033 | 52 | 84 | 4.0 | 12.0 | 0.00 | 0.00 | 0.00 | 63 | 1016.2 |
| 20260505160533 | 51 | 79 | 7.0 | 13.0 | 0.00 | 0.00 | 0.00 | 62 | 1016.2 |
| 20260505153108 | 52 | 83 | 7.0 | 15.0 | 0.00 | 0.00 | 0.00 | 61 | 1015.9 |
| 20260505152531 | 52 | 77 | 6.0 | 11.0 | 0.00 | 0.00 | 0.00 | 61 | 1016.0 |
| 20260505152032 | 52 | 81 | 4.0 | 13.0 | 0.00 | 0.00 | 0.00 | 60 | 1016.1 |
| 20260505151545 | 52 | 75 | 8.0 | 13.0 | 0.00 | 0.00 | 0.00 | 60 | 1016.1 |
| 20260505151032 | 52 | 122 | 7.0 | 14.0 | 0.00 | 0.00 | 0.00 | 60 | 1016.0 |
| 20260505150532 | 52 | 66 | 8.0 | 14.0 | 0.00 | 0.00 | 0.00 | 60 | 1016.0 |
| 20260505140536 | 53 | 74 | 7.0 | 15.0 | 0.00 | 0.00 | 0.00 | 60 | 1015.7 |
| 20260505125031 | 55 | 82 | 2.0 | 7.0 | 0.00 | 0.00 | 0.00 | 44 | 1015.3 |
| 20260505124540 | 55 | 146 | 1.0 | 5.0 | 0.00 | 0.00 | 0.00 | 45 | 1015.3 |
| 20260505124031 | 55 | 264 | 1.0 | 11.0 | 0.00 | 0.00 | 0.00 | 45 | 1015.3 |
| 20260505123535 | 55 | 96 | 5.0 | 11.0 | 0.00 | 0.00 | 0.00 | 45 | 1015.5 |
| 20260505123045 | 55 | 75 | 3.0 | 9.0 | 0.00 | 0.00 | 0.00 | 47 | 1015.3 |
| 20260505122531 | 55 | 115 | 5.0 | 9.0 | 0.00 | 0.00 | 0.00 | 47 | 1015.3 |
| 20260505122034 | 55 | 105 | 4.0 | 9.0 | 0.00 | 0.00 | 0.00 | 45 | 1015.5 |
| 20260505121537 | 55 | 296 | 0.0 | 9.0 | 0.00 | 0.00 | 0.00 | 46 | 1015.4 |
| 20260505121032 | 55 | 336 | 2.0 | 12.0 | 0.00 | 0.00 | 0.00 | 46 | 1015.6 |
| 20260505120531 | 55 | 40 | 7.0 | 12.0 | 0.00 | 0.00 | 0.00 | 46 | 1015.7 |
| 20260505120041 | 55 | 91 | 5.0 | 10.0 | 0.00 | 0.00 | 0.00 | 47 | 1015.6 |
| 20260505115531 | 55 | 108 | 4.0 | 10.0 | 0.00 | 0.00 | 0.00 | 48 | 1015.5 |
| 20260505115035 | 55 | 100 | 5.0 | 9.0 | 0.00 | 0.00 | 0.00 | 49 | 1015.6 |
| 20260505114545 | 55 | 96 | 5.0 | 8.0 | 0.00 | 0.00 | 0.00 | 50 | 1015.5 |
| 20260505114030 | 54 | 79 | 5.0 | 8.0 | 0.00 | 0.00 | 0.00 | 50 | 1015.6 |
| 20260505113531 | 54 | 108 | 3.0 | 8.0 | 0.00 | 0.00 | 0.00 | 48 | 1015.6 |
| 20260505113041 | 54 | 93 | 3.0 | 7.0 | 0.00 | 0.00 | 0.00 | 48 | 1015.5 |
| 20260505112531 | 54 | 69 | 2.0 | 5.0 | 0.00 | 0.00 | 0.00 | 50 | 1015.7 |
| 20260505112031 | 54 | 340 | 1.0 | 5.0 | 0.00 | 0.00 | 0.00 | 50 | 1015.6 |
| 20260505111553 | 54 | 67 | 1.0 | 6.0 | 0.00 | 0.00 | 0.00 | 51 | 1015.6 |
| 20260505111032 | 53 | 19 | 0.0 | 6.0 | 0.00 | 0.00 | 0.00 | 51 | 1015.7 |
| 20260505110532 | 52 | 75 | 2.0 | 6.0 | 0.00 | 0.00 | 0.00 | 51 | 1015.7 |
| 20260505102031 | 51 | 353 | 1.0 | 5.0 | 0.00 | 0.00 | 0.00 | 59 | 1015.8 |
| 20260505101538 | 51 | 294 | 1.0 | 5.0 | 0.00 | 0.00 | 0.00 | 59 | 1015.9 |
| 20260505101032 | 51 | 221 | 2.0 | 5.0 | 0.00 | 0.00 | 0.00 | 60 | 1015.9 |
| 20260505100535 | 51 | 351 | 0.0 | 6.0 | 0.00 | 0.00 | 0.00 | 61 | 1015.8 |
| 20260505100042 | 51 | 356 | 2.0 | 6.0 | 0.00 | 0.00 | 0.00 | 60 | 1015.7 |
| 20260505095533 | 51 | 37 | 1.0 | 5.0 | 0.00 | 0.00 | 0.00 | 61 | 1015.7 |
| 20260505095031 | 51 | 354 | 2.0 | 4.0 | 0.00 | 0.00 | 0.00 | 62 | 1015.7 |
| 20260505094537 | 51 | 36 | 1.0 | 4.0 | 0.00 | 0.00 | 0.00 | 62 | 1015.7 |
| 20260505094031 | 51 | 246 | 1.0 | 7.0 | 0.00 | 0.00 | 0.00 | 64 | 1015.6 |
| 20260505093531 | 51 | 302 | 3.0 | 7.0 | 0.00 | 0.00 | 0.00 | 61 | 1015.6 |
| 20260505093037 | 51 | 347 | 1.0 | 6.0 | 0.00 | 0.00 | 0.00 | 62 | 1015.6 |
| 20260505092532 | 51 | 324 | 2.0 | 8.0 | 0.00 | 0.00 | 0.00 | 62 | 1015.6 |
| 20260505092032 | 51 | 274 | 1.0 | 8.0 | 0.00 | 0.00 | 0.00 | 61 | 1015.5 |
| 20260505091550 | 51 | 340 | 3.0 | 8.0 | 0.00 | 0.00 | 0.00 | 62 | 1015.6 |
| 20260505091032 | 51 | 71 | 2.0 | 6.0 | 0.00 | 0.00 | 0.00 | 63 | 1015.5 |
| 20260505090531 | 51 | 293 | 2.0 | 6.0 | 0.00 | 0.00 | 0.00 | 64 | 1015.5 |
| 20260505090051 | 51 | 351 | 2.0 | 6.0 | 0.00 | 0.00 | 0.00 | 65 | 1015.5 |
| 20260505085534 | 51 | 11 | 2.0 | 5.0 | 0.00 | 0.00 | 0.00 | 66 | 1015.5 |
| 20260505085031 | 51 | 328 | 1.0 | 5.0 | 0.00 | 0.00 | 0.00 | 68 | 1015.5 |
| 20260505084538 | 51 | 272 | 2.0 | 4.0 | 0.00 | 0.00 | 0.00 | 68 | 1015.3 |
| 20260505084030 | 50 | 260 | 1.0 | 6.0 | 0.00 | 0.00 | 0.00 | 69 | 1015.3 |
| 20260505083531 | 50 | 323 | 2.0 | 6.0 | 0.00 | 0.00 | 0.00 | 69 | 1015.3 |
| 20260505083048 | 50 | 347 | 3.0 | 6.0 | 0.00 | 0.00 | 0.00 | 69 | 1015.5 |
| 20260505082530 | 50 | 342 | 2.0 | 6.0 | 0.00 | 0.00 | 0.00 | 70 | 1015.3 |
| 20260505082032 | 50 | 299 | 3.0 | 6.0 | 0.00 | 0.00 | 0.00 | 70 | 1015.4 |
| 20260505081557 | 50 | 332 | 1.0 | 7.0 | 0.00 | 0.00 | 0.00 | 72 | 1015.4 |
| 20260505081032 | 49 | 339 | 2.0 | 7.0 | 0.00 | 0.00 | 0.00 | 73 | 1015.3 |
| 20260505080534 | 49 | 283 | 1.0 | 7.0 | 0.00 | 0.00 | 0.00 | 73 | 1015.3 |
| 20260505080046 | 49 | 248 | 3.0 | 7.0 | 0.00 | 0.00 | 0.00 | 73 | 1015.3 |
| 20260505075531 | 49 | 331 | 3.0 | 6.0 | 0.00 | 0.00 | 0.00 | 74 | 1015.3 |
| 20260505075031 | 49 | 293 | 2.0 | 5.0 | 0.00 | 0.00 | 0.00 | 75 | 1015.3 |
| 20260505074602 | 48 | 276 | 2.0 | 5.0 | 0.00 | 0.00 | 0.00 | 76 | 1015.0 |
| 20260505074031 | 48 | 304 | 2.0 | 5.0 | 0.00 | 0.00 | 0.00 | 76 | 1015.0 |
| 20260505073531 | 48 | 293 | 2.0 | 6.0 | 0.00 | 0.00 | 0.00 | 77 | 1015.0 |
| 20260505073038 | 48 | 272 | 2.0 | 7.0 | 0.00 | 0.00 | 0.00 | 77 | 1015.1 |
| 20260505072531 | 48 | 278 | 3.0 | 7.0 | 0.00 | 0.00 | 0.00 | 77 | 1015.1 |
| 20260505072031 | 48 | 297 | 2.0 | 7.0 | 0.00 | 0.00 | 0.00 | 78 | 1015.1 |
| 20260505071544 | 48 | 359 | 2.0 | 7.0 | 0.00 | 0.00 | 0.00 | 78 | 1015.1 |
| 20260505071031 | 48 | 271 | 2.0 | 7.0 | 0.00 | 0.00 | 0.00 | 78 | 1015.1 |
| 20260505070532 | 47 | 0 | 1.0 | 5.0 | 0.00 | 0.00 | 0.00 | 79 | 1015.0 |
| 20260505070036 | 47 | 5 | 1.0 | 7.0 | 0.00 | 0.00 | 0.00 | 79 | 1015.1 |
| 20260505065532 | 47 | 274 | 3.0 | 7.0 | 0.00 | 0.00 | 0.00 | 79 | 1015.2 |
| 20260505065031 | 47 | 281 | 1.0 | 3.0 | 0.00 | 0.00 | 0.00 | 80 | 1015.1 |
| 20260505064537 | 46 | 272 | 1.0 | 4.0 | 0.00 | 0.00 | 0.00 | 80 | 1015.1 |
| 20260505064032 | 46 | 268 | 1.0 | 4.0 | 0.00 | 0.00 | 0.00 | 80 | 1015.1 |
| 20260505063531 | 46 | 282 | 2.0 | 4.0 | 0.00 | 0.00 | 0.00 | 80 | 1015.1 |
| 20260505063044 | 46 | 290 | 1.0 | 4.0 | 0.00 | 0.00 | 0.00 | 80 | 1015.1 |
| 20260505062531 | 46 | 283 | 1.0 | 4.0 | 0.00 | 0.00 | 0.00 | 80 | 1015.2 |
| 20260505062035 | 46 | 248 | 1.0 | 4.0 | 0.00 | 0.00 | 0.00 | 81 | 1015.1 |
| 20260505061606 | 46 | 269 | 2.0 | 4.0 | 0.00 | 0.00 | 0.00 | 80 | 1015.2 |
| 20260505061031 | 46 | 272 | 2.0 | 6.0 | 0.00 | 0.00 | 0.00 | 81 | 1015.0 |
| 20260505060534 | 46 | 293 | 3.0 | 6.0 | 0.00 | 0.00 | 0.00 | 80 | 1015.0 |
| 20260505060052 | 46 | 278 | 3.0 | 6.0 | 0.00 | 0.00 | 0.00 | 80 | 1014.9 |
| 20260505055531 | 46 | 300 | 2.0 | 6.0 | 0.00 | 0.00 | 0.00 | 81 | 1015.0 |
| 20260505055033 | 46 | 276 | 2.0 | 5.0 | 0.00 | 0.00 | 0.00 | 81 | 1015.0 |
| 20260505054545 | 45 | 299 | 2.0 | 5.0 | 0.00 | 0.00 | 0.00 | 81 | 1014.9 |
| 20260505054034 | 45 | 240 | 3.0 | 5.0 | 0.00 | 0.00 | 0.00 | 81 | 1014.9 |
| 20260505053531 | 45 | 281 | 2.0 | 4.0 | 0.00 | 0.00 | 0.00 | 81 | 1014.8 |
| 20260505053045 | 45 | 275 | 1.0 | 4.0 | 0.00 | 0.00 | 0.00 | 81 | 1014.8 |
| 20260505052531 | 46 | 226 | 1.0 | 4.0 | 0.00 | 0.00 | 0.00 | 81 | 1014.7 |
| 20260505052030 | 46 | 290 | 1.0 | 4.0 | 0.00 | 0.00 | 0.00 | 81 | 1014.6 |
| 20260505051543 | 46 | 269 | 1.0 | 6.0 | 0.00 | 0.00 | 0.00 | 81 | 1014.7 |
| 20260505051032 | 46 | 270 | 2.0 | 6.0 | 0.00 | 0.00 | 0.00 | 81 | 1014.6 |
| 20260505050531 | 46 | 310 | 3.0 | 6.0 | 0.00 | 0.00 | 0.00 | 81 | 1014.7 |
| 20260505041535 | 46 | 232 | 1.0 | 5.0 | 0.00 | 0.00 | 0.00 | 82 | 1014.7 |
| 20260505041030 | 46 | 257 | 1.0 | 4.0 | 0.00 | 0.00 | 0.00 | 82 | 1014.6 |
| 20260505040530 | 46 | 264 | 1.0 | 4.0 | 0.00 | 0.00 | 0.00 | 82 | 1014.8 |
| 20260505040039 | 46 | 233 | 1.0 | 4.0 | 0.00 | 0.00 | 0.00 | 82 | 1014.7 |
| 20260505035531 | 46 | 287 | 0.0 | 3.0 | 0.00 | 0.00 | 0.00 | 82 | 1014.6 |
| 20260505035031 | 46 | 273 | 0.0 | 2.0 | 0.00 | 0.00 | 0.00 | 82 | 1014.9 |
| 20260505034544 | 46 | 271 | 0.0 | 2.0 | 0.00 | 0.00 | 0.00 | 82 | 1014.9 |
| 20260505034034 | 46 | 0 | 0.0 | 2.0 | 0.00 | 0.00 | 0.00 | 82 | 1014.9 |
| 20260505033533 | 46 | 260 | 0.0 | 2.0 | 0.00 | 0.00 | 0.00 | 82 | 1014.8 |
| 20260505033046 | 46 | 278 | 0.0 | 2.0 | 0.00 | 0.00 | 0.00 | 82 | 1014.7 |
| 20260505032531 | 46 | 263 | 0.0 | 3.0 | 0.00 | 0.00 | 0.00 | 82 | 1014.9 |
| 20260505032031 | 46 | 0 | 0.0 | 3.0 | 0.00 | 0.00 | 0.00 | 82 | 1014.8 |
| 20260505031536 | 46 | 271 | 0.0 | 1.0 | 0.00 | 0.00 | 0.00 | 82 | 1014.9 |
| 20260505031033 | 46 | 255 | 0.0 | 1.0 | 0.00 | 0.00 | 0.00 | 82 | 1014.8 |
| 20260505030530 | 46 | 0 | 0.0 | 1.0 | 0.00 | 0.00 | 0.00 | 82 | 1014.7 |
| 20260505030036 | 46 | 0 | 0.0 | 1.0 | 0.00 | 0.00 | 0.00 | 82 | 1014.9 |
| 20260505025534 | 46 | 0 | 0.0 | 1.0 | 0.00 | 0.00 | 0.00 | 82 | 1014.9 |
| 20260505025030 | 46 | 0 | 0.0 | 1.0 | 0.00 | 0.00 | 0.00 | 81 | 1015.0 |
| 20260505024557 | 46 | 0 | 0.0 | 1.0 | 0.00 | 0.00 | 0.00 | 81 | 1014.9 |
| 20260505024030 | 47 | 0 | 0.0 | 1.0 | 0.00 | 0.00 | 0.00 | 81 | 1014.8 |
| 20260505023531 | 47 | 221 | 0.0 | 1.0 | 0.00 | 0.00 | 0.00 | 81 | 1014.9 |
| 20260505023042 | 47 | 0 | 0.0 | 1.0 | 0.00 | 0.00 | 0.00 | 81 | 1015.0 |
| 20260505022531 | 47 | 0 | 0.0 | 4.0 | 0.00 | 0.00 | 0.00 | 81 | 1014.9 |
| 20260505022031 | 47 | 300 | 1.0 | 4.0 | 0.00 | 0.00 | 0.00 | 81 | 1015.0 |
| 20260505021547 | 47 | 256 | 0.0 | 4.0 | 0.00 | 0.00 | 0.00 | 81 | 1014.9 |
| 20260505021030 | 47 | 293 | 2.0 | 8.0 | 0.00 | 0.00 | 0.00 | 81 | 1015.0 |
| 20260505020530 | 47 | 299 | 2.0 | 8.0 | 0.00 | 0.00 | 0.00 | 81 | 1015.1 |
| 20260505020044 | 47 | 248 | 2.0 | 5.0 | 0.00 | 0.00 | 0.00 | 81 | 1015.2 |
| 20260505015531 | 47 | 275 | 2.0 | 5.0 | 0.00 | 0.00 | 0.00 | 81 | 1015.2 |
| 20260505015031 | 47 | 280 | 2.0 | 5.0 | 0.00 | 0.00 | 0.00 | 81 | 1015.1 |
| 20260505014545 | 47 | 275 | 2.0 | 5.0 | 0.00 | 0.00 | 0.00 | 81 | 1015.1 |
| 20260505014030 | 47 | 274 | 1.0 | 4.0 | 0.00 | 0.00 | 0.00 | 81 | 1015.1 |
| 20260505013530 | 47 | 0 | 0.0 | 2.0 | 0.00 | 0.00 | 0.00 | 81 | 1015.1 |
| 20260505013042 | 47 | 226 | 0.0 | 0.0 | 0.00 | 0.00 | 0.00 | 81 | 1015.1 |
| 20260505012529 | 47 | 0 | 0.0 | 1.0 | 0.00 | 0.00 | 0.00 | 81 | 1015.2 |
| 20260505012031 | 47 | 0 | 0.0 | 1.0 | 0.00 | 0.00 | 0.00 | 81 | 1015.2 |
| 20260505011550 | 47 | 0 | 0.0 | 2.0 | 0.00 | 0.00 | 0.00 | 80 | 1015.2 |
| 20260505011032 | 47 | 0 | 0.0 | 2.0 | 0.00 | 0.00 | 0.00 | 80 | 1015.2 |
| 20260505010532 | 47 | 228 | 0.0 | 1.0 | 0.00 | 0.00 | 0.00 | 80 | 1015.1 |
| 20260505010039 | 47 | 273 | 0.0 | 2.0 | 0.00 | 0.00 | 0.00 | 80 | 1015.0 |